Regional Weather Roundup
Issued by NWS

Home | Current Version | Previous Version | Graphics & Text | Print | Product List | Glossary On
Versions: 1 2 3 4 5 6 7 8 9 10 11 12 13 14 15 16 17 18 19 20 21 22 23 24 25 26 27 28 29 30 31 32 33 34 35 36 37 38 39 40 41 42 43 44 45 46 47 48 49 50
000
ASUS43 KLMK 011802
RWRKY
KENTUCKY REGIONAL WEATHER ROUNDUP
NATIONAL WEATHER SERVICE LOUISVILLE KY
200 PM EDT WED OCT 01 2014

NOTE "FAIR" INDICATES FEW OR NO CLOUDS BELOW 12,000 FEET
WITH NO SIGNIFICANT WEATHER AND/OR OBSTRUCTIONS TO VISIBILITY.

KYZ001>023-026-027-061>063-070>075-011900-
WESTERN AND SOUTH CENTRAL KENTUCKY

CITY           SKY/WX    TMP DP  RH WIND       PRES   REMARKS
PADUCAH        FAIR      86  61  42 VRB3      29.92F
HENDERSON      NOT AVBL
OWENSBORO      MOSUNNY   85  55  35 SW6       29.95F
HOPKINSVILLE   SUNNY     85  58  39 SW7       29.95F
BOWLING GREEN  MOSUNNY   86  53  32 S7        29.98F
GLASGOW        SUNNY     84  51  32 W8        29.98F
$$

KYZ024-025-028>034-038-045-046-053-011900-
NORTH CENTRAL KENTUCKY

CITY           SKY/WX    TMP DP  RH WIND       PRES   REMARKS
LOUISVILLE/SDF MOSUNNY   79  60  52 CALM      29.98F
LOUISVILLE/LOU SUNNY     79  61  53 S3        29.99F
FORT KNOX      SUNNY     81  61  49 VRB1      29.98F
$$

KYZ035>037-039>044-047>052-055>060-089>105-011900-
NORTHEAST KENTUCKY

CITY           SKY/WX    TMP DP  RH WIND       PRES   REMARKS
LEXINGTON      SUNNY     79  61  53 VRB3      30.02F
COVINGTON      MOSUNNY   73  52  47 CALM      30.02F
FRANKFORT      SUNNY     76  61  59 VRB5      30.01F
$$

KYZ054-064>069-076>088-106>120-011900-
SOUTHEAST KENTUCKY

CITY           SKY/WX    TMP DP  RH WIND       PRES   REMARKS
JACKSON        SUNNY     76  61  59 VRB3      30.03F
LONDON         SUNNY     82  54  37 W6        30.02F
SOMERSET       SUNNY     81  50  34 W6        30.02F
MIDDLESBORO    MOSUNNY   78  55  45 CALM      30.02F
MONTICELLO     MOCLDY    84  54  35 VRB5      30.02F
$$



USA.gov is the U.S. government's official web portal to all federal, state and local government web resources and services.